When you browse on this site, cookies collect data to enhance your experience and personalize the content and advertising you see.
Visit our Privacy Policy to learn more. By continuing to use the site, you agree to this use of cookies and data.
  • In Latvia
  • List of Countries
  • For 7 days
  • Water Temperature
  • Weather Map
  • Weather Widgets
  • user-avatar
    Login

    Hourly Weather Meyrin

    Today, 16 September, Monday

    Time Temperature Precipitation Wind Pressure Humidity
    00:00 +18°C° 0 mm 0 mps 730 mmHg 84%
    01:00 +18°C° 0 mm 0 mps 730 mmHg 85%
    02:00 +18°C° 0 mm 0 mps 729 mmHg 85%
    03:00 +17°C° 0 mm 0 mps 729 mmHg 86%
    04:00 +18°C° 0 mm 0 mps 729 mmHg 86%
    05:00 +18°C° 0 mm 0 mps 729 mmHg 86%
    06:00 +18°C° 0 mm 0 mps 729 mmHg 86%
    07:00 +20°C° 0 mm 0 mps 729 mmHg 78%
    08:00 +23°C° 0 mm 0 mps 729 mmHg 70%
    09:00 +25°C° 0 mm 0 mps 729 mmHg 63%
    10:00 +28°C° 0.1 mm 1 mps 729 mmHg 59%
    11:00 +29°C° 0.1 mm 1 mps 729 mmHg 55%
    12:00 +30°C° 0.1 mm 1 mps 729 mmHg 50%
    13:00 +30°C° 0.1 mm 1 mps 728 mmHg 52%
    14:00 +29°C° 0.1 mm 1 mps 728 mmHg 53%
    15:00 +29°C° 0.1 mm 1 mps 728 mmHg 55%
    16:00 +27°C° 0.1 mm 1 mps 727 mmHg 63%
    17:00 +25°C° 0.1 mm 1 mps 727 mmHg 72%
    18:00 +23°C° 0.1 mm 1 mps 727 mmHg 80%
    19:00 +22°C° 0 mm 1 mps 727 mmHg 80%
    20:00 +21°C° 0 mm 1 mps 727 mmHg 80%
    21:00 +21°C° 0 mm 1 mps 728 mmHg 80%
    22:00 +20°C° 0 mm 1 mps 728 mmHg 81%
    23:00 +20°C° 0 mm 1 mps 728 mmHg 81%

    Tomorrow, 17 September, Tuesday

    Time Temperature Precipitation Wind Pressure Humidity
    00:00 +19°C° 0 mm 1 mps 728 mmHg 82%
    01:00 +17°C° 0 mm 0 mps 727 mmHg 83%
    02:00 +17°C° 0 mm 0 mps 727 mmHg 83%
    03:00 +17°C° 0 mm 0 mps 727 mmHg 84%
    04:00 +17°C° 0 mm 0 mps 727 mmHg 85%
    05:00 +17°C° 0 mm 0 mps 727 mmHg 85%
    06:00 +17°C° 0 mm 0 mps 727 mmHg 85%
    07:00 +19°C° 0 mm 0 mps 727 mmHg 77%
    08:00 +21°C° 0 mm 0 mps 727 mmHg 68%
    09:00 +26°C° 0 mm 1 mps 727 mmHg 60%
    10:00 +27°C° 0 mm 1 mps 727 mmHg 55%
    11:00 +27°C° 0 mm 1 mps 727 mmHg 49%
    12:00 +28°C° 0 mm 1 mps 726 mmHg 44%
    13:00 +28°C° 0 mm 1 mps 726 mmHg 45%
    14:00 +27°C° 0 mm 2 mps 726 mmHg 46%
    15:00 +27°C° 0 mm 2 mps 726 mmHg 47%
    16:00 +25°C° 0 mm 2 mps 725 mmHg 56%
    17:00 +21°C° 0 mm 2 mps 725 mmHg 65%
    18:00 +19°C° 0 mm 2 mps 725 mmHg 74%
    19:00 +18°C° 0 mm 2 mps 726 mmHg 76%
    20:00 +18°C° 0 mm 2 mps 726 mmHg 77%
    21:00 +17°C° 0 mm 2 mps 726 mmHg 79%
    22:00 +17°C° 0 mm 2 mps 726 mmHg 82%
    23:00 +16°C° 0 mm 2 mps 726 mmHg 85%

    Day after tomorrow, 18 September, Wednesday

    Time Temperature Precipitation Wind Pressure Humidity
    00:00 +16°C° 0 mm 2 mps 726 mmHg 89%
    01:00 +14°C° 0 mm 3 mps 726 mmHg 89%
    02:00 +14°C° 0 mm 3 mps 726 mmHg 90%
    03:00 +13°C° 0 mm 3 mps 726 mmHg 90%
    04:00 +13°C° 0 mm 3 mps 726 mmHg 89%
    05:00 +13°C° 0 mm 2 mps 726 mmHg 89%
    06:00 +13°C° 0 mm 2 mps 726 mmHg 88%
    07:00 +14°C° 0 mm 2 mps 726 mmHg 82%
    08:00 +16°C° 0 mm 2 mps 726 mmHg 76%
    09:00 +18°C° 0 mm 2 mps 726 mmHg 70%
    10:00 +19°C° 0 mm 3 mps 726 mmHg 66%
    11:00 +20°C° 0 mm 3 mps 726 mmHg 63%
    12:00 +21°C° 0 mm 3 mps 726 mmHg 59%
    13:00 +21°C° 0 mm 3 mps 726 mmHg 59%
    14:00 +21°C° 0 mm 3 mps 726 mmHg 60%
    15:00 +21°C° 0 mm 3 mps 726 mmHg 60%
    16:00 +19°C° 0 mm 3 mps 726 mmHg 66%
    17:00 +17°C° 0 mm 3 mps 726 mmHg 71%
    18:00 +15°C° 0 mm 2 mps 727 mmHg 77%
    19:00 +14°C° 0 mm 2 mps 727 mmHg 78%
    20:00 +12°C° 0 mm 3 mps 727 mmHg 79%
    21:00 +11°C° 0 mm 3 mps 728 mmHg 80%
    22:00 +12°C° 0 mm 2 mps 728 mmHg 82%
    23:00 +10°C° 0 mm 2 mps 728 mmHg 85%

    19 September, Thursday

    Time Temperature Precipitation Wind Pressure Humidity
    00:00 +10°C° 0 mm 2 mps 728 mmHg 87%
    01:00 +9°C° 0 mm 2 mps 728 mmHg 88%
    02:00 +9°C° 0 mm 2 mps 728 mmHg 88%
    03:00 +9°C° 0 mm 2 mps 728 mmHg 89%
    04:00 +9°C° 0 mm 2 mps 728 mmHg 87%
    05:00 +9°C° 0 mm 2 mps 728 mmHg 86%
    06:00 +9°C° 0 mm 2 mps 728 mmHg 85%
    07:00 +11°C° 0 mm 3 mps 728 mmHg 79%
    08:00 +12°C° 0 mm 3 mps 728 mmHg 72%
    09:00 +14°C° 0 mm 3 mps 729 mmHg 65%
    10:00 +16°C° 0 mm 3 mps 729 mmHg 61%
    11:00 +18°C° 0 mm 3 mps 728 mmHg 56%
    12:00 +19°C° 0 mm 4 mps 728 mmHg 51%
    13:00 +19°C° 0 mm 4 mps 728 mmHg 51%
    14:00 +19°C° 0 mm 4 mps 728 mmHg 50%
    15:00 +19°C° 0 mm 4 mps 728 mmHg 50%
    16:00 +17°C° 0 mm 4 mps 728 mmHg 56%
    17:00 +14°C° 0 mm 3 mps 728 mmHg 63%
    18:00 +12°C° 0 mm 3 mps 729 mmHg 70%
    19:00 +12°C° 0 mm 3 mps 729 mmHg 74%
    20:00 +11°C° 0 mm 3 mps 729 mmHg 79%
    21:00 +10°C° 0 mm 2 mps 729 mmHg 83%
    22:00 +10°C° 0 mm 2 mps 729 mmHg 87%
    23:00 +9°C° 0 mm 2 mps 729 mmHg 90%

    20 September, Friday

    Time Temperature Precipitation Wind Pressure Humidity
    00:00 +9°C° 0 mm 2 mps 729 mmHg 93%
    01:00 +9°C° 0 mm 2 mps 729 mmHg 93%
    02:00 +9°C° 0 mm 2 mps 729 mmHg 93%
    03:00 +9°C° 0 mm 2 mps 729 mmHg 93%
    04:00 +9°C° 0 mm 2 mps 729 mmHg 93%
    05:00 +9°C° 0 mm 2 mps 729 mmHg 92%
    06:00 +9°C° 0 mm 2 mps 729 mmHg 92%
    07:00 +12°C° 0 mm 2 mps 729 mmHg 84%
    08:00 +15°C° 0 mm 1 mps 729 mmHg 77%
    09:00 +18°C° 0 mm 1 mps 729 mmHg 70%
    10:00 +20°C° 0 mm 1 mps 729 mmHg 66%
    11:00 +21°C° 0 mm 1 mps 729 mmHg 62%
    12:00 +23°C° 0 mm 1 mps 728 mmHg 58%
    13:00 +23°C° 0 mm 1 mps 728 mmHg 59%
    14:00 +23°C° 0 mm 1 mps 728 mmHg 61%
    15:00 +23°C° 0 mm 2 mps 727 mmHg 62%
    16:00 +21°C° 0 mm 1 mps 727 mmHg 70%
    17:00 +19°C° 0 mm 1 mps 727 mmHg 79%
    18:00 +16°C° 0 mm 1 mps 727 mmHg 87%
    19:00 +15°C° 0 mm 1 mps 727 mmHg 87%
    20:00 +14°C° 0 mm 1 mps 728 mmHg 87%
    21:00 +14°C° 0 mm 1 mps 728 mmHg 86%
    22:00 +14°C° 0 mm 1 mps 728 mmHg 87%
    23:00 +13°C° 0 mm 1 mps 728 mmHg 88%

    21 September, Saturday

    Time Temperature Precipitation Wind Pressure Humidity
    00:00 +13°C° 0 mm 1 mps 728 mmHg 88%
    01:00 +13°C° 0 mm 1 mps 728 mmHg 89%
    02:00 +13°C° 0 mm 1 mps 728 mmHg 90%
    03:00 +13°C° 0 mm 1 mps 728 mmHg 91%
    04:00 +13°C° 0 mm 1 mps 727 mmHg 91%
    05:00 +13°C° 0 mm 1 mps 727 mmHg 91%
    06:00 +12°C° 0 mm 0 mps 727 mmHg 91%
    07:00 +16°C° 0 mm 1 mps 728 mmHg 83%
    08:00 +19°C° 0 mm 1 mps 728 mmHg 74%
    09:00 +22°C° 0 mm 1 mps 728 mmHg 66%
    10:00 +23°C° 0 mm 1 mps 728 mmHg 63%
    11:00 +25°C° 0 mm 1 mps 728 mmHg 59%
    12:00 +26°C° 0 mm 1 mps 727 mmHg 56%
    13:00 +26°C° 0.3 mm 1 mps 727 mmHg 58%
    14:00 +25°C° 0.3 mm 1 mps 727 mmHg 61%
    15:00 +25°C° 0.3 mm 1 mps 726 mmHg 64%
    16:00 +23°C° 0.2 mm 1 mps 726 mmHg 70%
    17:00 +19°C° 0.2 mm 0 mps 727 mmHg 77%
    18:00 +17°C° 0.2 mm 0 mps 727 mmHg 84%
    19:00 +17°C° 0 mm 0 mps 727 mmHg 84%
    20:00 +17°C° 0 mm 0 mps 727 mmHg 84%
    21:00 +16°C° 0 mm 0 mps 727 mmHg 84%
    22:00 +16°C° 0 mm 0 mps 727 mmHg 85%
    23:00 +16°C° 0 mm 0 mps 727 mmHg 86%
    Show more